Hourly Weather Roundup
Issued by NWS Central Illinois

Home | Current Version | Previous Version | Text Only | Print | Product List | Glossary On
Versions: 1 2 3 4 5 6 7 8 9 10 11 12 13 14 15 16 17 18 19 20 21 22 23 24 25 26 27 28 29 30 31 32 33 34 35 36 37 38 39 40 41 42 43 44 45 46 47 48 49 50
000
NZUS43 KILX 300510
HWRILX

AREA WEATHER ROUNDUP
NATIONAL WEATHER SERVICE, LINCOLN IL
1200 AM CDT WED JUL 30 2014


CITY           SKY/WX    TMP DP  RH WIND       PRES   REMARKS
BLOOMINGTON    CLEAR     64  57  78 W7        30.07S
CHAMPAIGN      CLEAR     60  57  89 W6        30.07R
DECATUR        CLEAR     66  58  75 W5        30.08R
FLORA          CLEAR     57  55  94 CALM      30.09S
GALESBURG      CLEAR     63  58  84 W5        30.07S
JACKSONVILLE   CLEAR     62  59  91 CALM      30.10R
LACON          CLEAR     60  56  86 CALM      30.04S
LAWRENCEVILLE  CLEAR     61  58  90 CALM      30.08S
LITCHFIELD     CLEAR     57  55  95 CALM      30.10R
$$


CITY           SKY/WX    TMP DP  RH WIND       PRES   REMARKS
LINCOLN        CLEAR     65  59  81 CALM      30.05S
MACOMB         CLEAR     58  57  97 W6        30.10S
MATTOON        CLEAR     64  56  75 SW7       30.07S
MT CARMEL AP   CLEAR     59  59 100 CALM      30.08S
OLNEY-NOBLE AP CLEAR     55  55 100 CALM      30.09R
PARIS          CLEAR     61  58  88 SW5       30.07S
PEORIA         CLEAR     66  57  72 W5        30.06S
PONTIAC        CLEAR     63  61  94 W3        30.04S
RANTOUL        PTCLDY    64  58  82 W7        30.06S
ROBINSON       CLEAR     58  57  96 CALM      30.09S
SPRINGFIELD    CLEAR     63  58  83 W6        30.08S
TAYLORVILLE    CLEAR     55  55 100 CALM      30.08S
$$

...REGIONAL REPORTS...


CITY           SKY/WX    TMP DP  RH WIND       PRES   REMARKS
CHICAGO O`HARE PTCLDY    61  55  81 NW3       30.01F
KANKAKEE       MOCLDY    63  59  86 SW6       30.03S
MOLINE         CLEAR     63  58  83 W5        30.05S
MOUNT VERNON   CLEAR     59  55  88 CALM      30.10S
PITTSFIELD     CLEAR     60  58  90 CALM      30.11R
QUINCY         CLEAR     63  57  81 CALM      30.09S
ROCKFORD       MOCLDY    65  53  65 CALM      30.07R
$$


CITY           SKY/WX    TMP DP  RH WIND       PRES   REMARKS
BURLINGTON     CLEAR     60  58  92 W3        30.08R
CEDAR RAPIDS   CLEAR     61  53  75 NW5       30.07S
DES MOINES     CLEAR     65  56  72 W5        30.10S
KIRKSVILLE     CLOUDY    60  58  92 CALM      30.12R
OTTUMWA        CLEAR     59  56  89 W3        30.09S
ST LOUIS       PTCLDY    67  56  67 CALM      30.10S
$$


CITY           SKY/WX    TMP DP  RH WIND       PRES   REMARKS
TERRE HAUTE    CLEAR     63  57  81 W5        30.07R
EVANSVILLE     CLEAR     64  58  80 CALM      30.09R
INDIANAPOLIS   PTCLDY    60  58  92 SW6       30.05S
LAFAYETTE      RAIN      59  59 100 CALM      30.03S FOG
MADISON        PTCLDY    60  56  86 CALM      30.03S
MILWAUKEE      MOCLDY    61  57  87 W7        30.00S
$$





USA.gov is the U.S. government's official web portal to all federal, state and local government web resources and services.